Weather History for West Plains, MO

Change the Weather History Date:

Tuesday, July 23, 2013

  Actual Average Record
Temperature  
Mean Temperature 78 °F 78 °F  
Max Temperature 89 °F 90 °F 100 °F (2001)
Min Temperature 67 °F 67 °F 54 °F (2007)
Degree Days  
Heating Degree Days 0 0  
Month to date heating degree days 0 0  
Since 1 June heating degree days 9 5  
Since 1 July heating degree days 0 0  
Cooling Degree Days 13 13  
Month to date cooling degree days 222 295  
Year to date cooling degree days 482 683  
Since 1 June cooling degree days 370 561  
Growing Degree Days 27 (Base 50)    
Moisture  
Dew Point 68 °F    
Average Humidity 76    
Maximum Humidity 93    
Minimum Humidity 59    
Precipitation  
Precipitation 1.03 in 0.12 in 2.37 in (1963)
Month to date precipitation 3.85 2.76  
Year to date precipitation 29.34 26.05  
Sea Level Pressure  
Sea Level Pressure 29.89 in    
Wind  
Wind Speed 6 mph (SSW)    
Max Wind Speed 29 mph    
Max Gust Speed 41 mph    
Visibility 8 miles    
Events Rain , Thunderstorm    
T = Trace of Precipitation, MM = Missing Value Source: NWS Daily Summary

Daily Weather History Graph

Daily Weather History Graph

Search for Another Location

Airport:

Trip Planner

Search our weather history database for the weather conditions in past years. The results will help you decide how hot, cold, wet, or windy it might be!

Date:

Astronomy

Jul. 23, 2013 Rise Set
Actual Time 6:06 AM CDT 8:21 PM CDT
Civil Twilight 5:36 AM CDT 8:50 PM CDT
Nautical Twilight 5:00 AM CDT 9:26 PM CDT
Astronomical Twilight 4:21 AM CDT 10:05 PM CDT
Moon 8:54 PM CDT (7/23) 7:12 AM CDT (7/23)
Length of Visible Light 15h 14m
Length of Day
14h 15m
Full, 99% of the Moon is Illuminated
Jul 23
Full
Jul 29
Last Quarter
Aug 6
New
Aug 14
First Quarter
Aug 20
Full

Hourly Weather History & Observations

Time (CDT) Temp. Heat Index Dew Point Humidity Pressure Visibility Wind Dir Wind Speed Gust Speed Precip Events Conditions
12:53 AM 71.1 °F - 68.0 °F 90% 29.89 in 10.0 mi Calm Calm - N/A   Clear
1:53 AM 71.1 °F - 69.1 °F 93% 29.89 in 10.0 mi Calm Calm - N/A   Clear
2:53 AM 73.0 °F - 70.0 °F 90% 29.87 in 10.0 mi SW 4.6 mph - N/A   Clear
3:53 AM 73.0 °F - 70.0 °F 90% 29.84 in 10.0 mi SW 3.5 mph - N/A   Clear
4:53 AM 73.0 °F - 70.0 °F 90% 29.84 in 10.0 mi WSW 5.8 mph - N/A   Clear
5:53 AM 73.0 °F - 69.1 °F 87% 29.89 in 10.0 mi North 15.0 mph 21.9 mph N/A Thunderstorm Overcast
6:14 AM 71.6 °F - 66.2 °F 83% 29.98 in 6.0 mi North 20.7 mph 41.4 mph 0.02 in Rain , Thunderstorm Thunderstorms and Rain
6:21 AM 68.0 °F - 64.4 °F 88% 29.96 in 3.0 mi NNE 16.1 mph 36.8 mph 0.06 in Rain , Thunderstorm Heavy Thunderstorms and Rain
6:53 AM 68.0 °F - 64.9 °F 90% 29.91 in 6.0 mi SSE 5.8 mph - 0.11 in Rain , Thunderstorm Light Thunderstorms and Rain
7:21 AM 66.2 °F - 64.4 °F 94% 29.94 in 10.0 mi Variable 3.5 mph - 0.00 in   Mostly Cloudy
7:53 AM 68.0 °F - 64.9 °F 90% 29.90 in 10.0 mi South 3.5 mph - 0.00 in   Scattered Clouds
8:53 AM 73.0 °F - 68.0 °F 84% 29.88 in 10.0 mi SSW 6.9 mph - N/A   Clear
9:53 AM 80.1 °F 82.9 °F 69.1 °F 69% 29.87 in 10.0 mi SW 11.5 mph - N/A   Clear
10:53 AM 82.9 °F 87.5 °F 71.1 °F 67% 29.89 in 10.0 mi SW 9.2 mph 17.3 mph N/A   Clear
11:53 AM 86.0 °F 92.2 °F 72.0 °F 63% 29.88 in 10.0 mi SW 8.1 mph - N/A   Partly Cloudy
12:53 PM 88.0 °F 95.6 °F 73.0 °F 61% 29.87 in 10.0 mi Calm Calm - N/A   Partly Cloudy
1:53 PM 88.0 °F 94.7 °F 72.0 °F 59% 29.85 in 10.0 mi SSW 3.5 mph - N/A   Scattered Clouds
2:23 PM 87.8 °F 95.6 °F 73.4 °F 62% 29.87 in 10.0 mi SE 4.6 mph - N/A Thunderstorm Mostly Cloudy
2:53 PM 84.0 °F 91.9 °F 75.0 °F 74% 29.87 in 5.0 mi West 12.7 mph 29.9 mph 0.02 in Rain , Thunderstorm Thunderstorms and Rain
3:04 PM 71.6 °F - 64.4 °F 78% 29.92 in 2.0 mi West 18.4 mph 29.9 mph 0.08 in Rain , Thunderstorm Heavy Thunderstorms and Rain
3:07 PM 69.8 °F - 62.6 °F 78% 29.93 in 1.5 mi NW 13.8 mph 27.6 mph 0.13 in Rain , Thunderstorm Heavy Thunderstorms and Rain
3:21 PM 69.8 °F - 64.4 °F 83% 29.94 in 1.0 mi North 17.3 mph 36.8 mph 0.41 in Rain , Thunderstorm Heavy Thunderstorms and Rain
3:32 PM 71.6 °F - 64.4 °F 78% 29.89 in 2.5 mi Variable 5.8 mph - 0.50 in Rain , Thunderstorm Light Thunderstorms and Rain
3:39 PM 71.6 °F - 66.2 °F 83% 29.88 in 10.0 mi South 10.4 mph - 0.50 in Thunderstorm Thunderstorm
3:53 PM 72.0 °F - 64.9 °F 78% 29.85 in 10.0 mi SW 12.7 mph - 0.50 in Thunderstorm Thunderstorm
4:32 PM 75.2 °F - 66.2 °F 73% 29.85 in 10.0 mi South 9.2 mph - 0.00 in   Partly Cloudy
4:53 PM 75.0 °F - 66.9 °F 76% 29.83 in 10.0 mi ESE 4.6 mph - 0.00 in   Clear
5:01 PM 73.4 °F - 68.0 °F 83% 29.87 in 10.0 mi East 4.6 mph - N/A Thunderstorm Scattered Clouds
5:24 PM 71.6 °F - 66.2 °F 83% 29.88 in 1.8 mi South 6.9 mph - 0.08 in Rain , Thunderstorm Heavy Thunderstorms and Rain
5:37 PM 71.6 °F - 68.0 °F 88% 29.95 in 2.0 mi Variable 6.9 mph 36.8 mph 0.23 in Rain , Thunderstorm Heavy Thunderstorms and Rain
5:41 PM 69.8 °F - 68.0 °F 94% 29.95 in 1.5 mi NW 8.1 mph 36.8 mph 0.29 in Rain , Thunderstorm Heavy Thunderstorms and Rain
5:53 PM 70.0 °F - 68.0 °F 93% 29.92 in 3.0 mi Calm Calm - 0.35 in Rain , Thunderstorm Heavy Rain
6:07 PM 69.8 °F - 68.0 °F 94% 29.96 in 7.0 mi East 4.6 mph - 0.04 in Rain , Thunderstorm Light Thunderstorms and Rain
6:32 PM 69.8 °F - 69.8 °F 100% 29.94 in 10.0 mi SE 5.8 mph - 0.04 in   Partly Cloudy
6:45 PM 69.8 °F - 69.8 °F 100% 29.92 in 10.0 mi SSE 6.9 mph - 0.04 in Thunderstorm Partly Cloudy
6:53 PM 70.0 °F - 69.1 °F 97% 29.88 in 10.0 mi SSE 6.9 mph - 0.04 in Thunderstorm Partly Cloudy
7:00 PM 69.8 °F - 68.0 °F 94% 29.91 in 10.0 mi South 6.9 mph - N/A   Clear
7:53 PM 69.1 °F - 66.9 °F 93% 29.88 in 10.0 mi SW 5.8 mph - N/A   Clear
8:53 PM 69.1 °F - 66.9 °F 93% 29.86 in 10.0 mi WSW 8.1 mph - N/A   Clear
9:53 PM 68.0 °F - 66.9 °F 96% 29.89 in 10.0 mi Calm Calm - N/A   Clear
10:53 PM 68.0 °F - 66.0 °F 93% 29.87 in 10.0 mi Calm Calm - N/A   Clear
11:53 PM 68.0 °F - 66.0 °F 93% 29.88 in 10.0 mi West 3.5 mph - 0.01 in   Clear